User: anonymous   Login
Location: Unspecified
(0.0000°N, 0.0000°E)
Time: 22:23:33
(UTC+00:00)
Language:

STARLINK-35584 - Orbit

View from above orbital plane
View from above orbital plane
View from above satellite
View from above satellite

Ground track
Ground track

The orbit is defined by the following mean orbital elements,

1 66106U          26145.58335647 +.00000000 +00000-0 -49892-3 0 00007
2 66106  53.1605 106.6122 0001411  94.6161  87.2726 15.34397822    09
Epoch (UTC): 25 May 2026 14:00:01
Eccentricity: 0.0001411
inclination: 53.1605°
perigee height: 462 km
apogee height: 464 km
right ascension of ascending node: 106.6122°
argument of perigee: 94.6161°
revolutions per day: 15.34397822
mean anomaly at epoch: 87.2726°

The dashed part of the orbit path shows where the satellite is in the earth's shadow,  

DLR